Tracking 25612 objects as of 19-May-2022
HD Live streaming from Space Station
objects crossing your sky now

SL-14 DEB

Track SL-14 DEB now!
10-day predictions


NORAD ID: 26017
Int'l Code: 1991-068AC
Perigee: 1,453.6 km
Apogee: 1,546.1 km
Inclination: 82.7 °
Period: 115.8 minutes
Semi major axis: 7870 km
RCS: 0.1062 m2 (medium)
Launch date: September 28, 1991
Source: Commonwealth of Independent States (former USSR) (CIS)
Launch site: PLESETSK MISSILE AND SPACE COMPLEX (PKMTR)

Note: This is SATELLITE DEBRIS
aabbcc
Your satellite tracking list
Your tracking list is empty




NASA's NSSDC Master Catalog

Two Line Element Set (TLE):
1 26017U 91068AC  22139.46700087  .00000021  00000-0  78027-4 0  9990
2 26017  82.6879 128.0255 0058715 243.6171 274.2030 12.43283698394764
Source of the keplerian elements: AFSPC